Weather History for Point Pleasant, WV

Change the Weather History Date:

Tuesday, March 11, 2014

  Actual Average (KHTS) Record (KHTS)
Temperature  
Mean Temperature 64 °F 44 °F  
Max Temperature 78 °F 55 °F 83 °F (1990)
Min Temperature 50 °F 34 °F 14 °F (1934)
Degree Days  
Heating Degree Days 1 21  
Month to date heating degree days 248  
Since 1 July heating degree days 3749  
Cooling Degree Days 0 0  
Month to date cooling degree days 0  
Year to date cooling degree days 0  
Growing Degree Days 14 (Base 50)    
Moisture  
Dew Point 37 °F    
Average Humidity 42    
Maximum Humidity 62    
Minimum Humidity 19    
Precipitation  
Precipitation 0.00 in 0.13 in 2.38 in (1939)
Month to date precipitation 1.35  
Year to date precipitation 7.39  
Snow  
Snow 0.00 in - - ()
Month to date snowfall  
Since 1 September snowfall  
Snow Depth -    
Sea Level Pressure  
Sea Level Pressure 29.72 in    
Wind  
Wind Speed 5 mph (SW)    
Max Wind Speed 16 mph    
Max Gust Speed 23 mph    
Visibility 10 miles    
Events      
T = Trace of Precipitation, MM = Missing Value Source: NWS Daily Summary

Daily Weather History Graph

Daily Weather History Graph

Search for Another Location

Airport:

Trip Planner

Search our weather history database for the weather conditions in past years. The results will help you decide how hot, cold, wet, or windy it might be!

Date:

Astronomy

Mar. 11, 2014 Rise Set
Actual Time 7:45 AM EDT 7:31 PM EDT
Civil Twilight 7:19 AM EDT 7:58 PM EDT
Nautical Twilight 6:48 AM EDT 8:28 PM EDT
Astronomical Twilight 6:17 AM EDT 9:00 PM EDT
Moon 3:08 PM EDT (3/11) 4:36 AM EDT (3/11)
Length of Visible Light 12h 38m
Length of Day
11h 45m
Waxing Gibbous, 78% of the Moon is Illuminated
Mar 11
Waxing Gibbous
Mar 16
Full
Mar 23
Last Quarter
Mar 30
New
Apr 7
First Quarter

Hourly Weather History & Observations

Time (EDT) Temp. Dew Point Humidity Pressure Visibility Wind Dir Wind Speed Gust Speed Precip Events Conditions
12:15 AM 51.8 °F 35.6 °F 54% 29.78 in 10.0 mi WSW 3.5 mph - N/A   Clear
12:35 AM 51.8 °F 35.6 °F 54% 29.78 in 10.0 mi SW 3.5 mph - N/A   Clear
12:55 AM 50.0 °F 35.6 °F 58% 29.78 in 10.0 mi SW 4.6 mph - N/A   Clear
1:15 AM 50.0 °F 35.6 °F 58% 29.78 in 10.0 mi SW 4.6 mph - N/A   Clear
1:35 AM 51.8 °F 35.6 °F 54% 29.77 in 10.0 mi SW 6.9 mph - N/A   Clear
1:55 AM 53.6 °F 35.6 °F 51% 29.77 in 10.0 mi SW 5.8 mph - N/A   Clear
2:15 AM 51.8 °F 35.6 °F 54% 29.77 in 10.0 mi WSW 5.8 mph - N/A   Clear
2:35 AM 51.8 °F 35.6 °F 54% 29.77 in 10.0 mi SW 4.6 mph - N/A   Clear
2:55 AM 53.6 °F 35.6 °F 51% 29.77 in 10.0 mi SW 5.8 mph - N/A   Clear
3:20 AM 55.4 °F 35.6 °F 47% 29.77 in 10.0 mi SW 5.8 mph - N/A   Clear
3:35 AM 55.4 °F 35.6 °F 47% 29.76 in 10.0 mi SW 5.8 mph - N/A   Clear
3:55 AM 53.6 °F 37.4 °F 54% 29.76 in 10.0 mi SW 5.8 mph - N/A   Clear
4:15 AM 55.4 °F 35.6 °F 47% 29.76 in 10.0 mi SW 6.9 mph - N/A   Clear
4:35 AM 55.4 °F 35.6 °F 47% 29.76 in 10.0 mi SW 6.9 mph - N/A   Clear
4:55 AM 55.4 °F 35.6 °F 47% 29.76 in 10.0 mi SW 6.9 mph - N/A   Clear
5:15 AM 53.6 °F 37.4 °F 54% 29.76 in 10.0 mi WSW 3.5 mph - N/A   Clear
5:35 AM 53.6 °F 37.4 °F 54% 29.77 in 10.0 mi WSW 3.5 mph - N/A   Clear
5:55 AM 51.8 °F 37.4 °F 58% 29.77 in 10.0 mi Calm Calm - N/A   Clear
6:15 AM 51.8 °F 37.4 °F 58% 29.77 in 10.0 mi SSW 3.5 mph - N/A   Clear
6:35 AM 51.8 °F 37.4 °F 58% 29.77 in 10.0 mi SSW 4.6 mph - N/A   Clear
6:55 AM 53.6 °F 37.4 °F 54% 29.77 in 10.0 mi SW 4.6 mph - N/A   Clear
7:15 AM 51.8 °F 37.4 °F 58% 29.77 in 10.0 mi SSW 3.5 mph - N/A   Clear
7:35 AM 53.6 °F 37.4 °F 54% 29.77 in 10.0 mi SSW 4.6 mph - N/A   Clear
7:55 AM 53.6 °F 37.4 °F 54% 29.77 in 10.0 mi SW 4.6 mph - N/A   Clear
8:15 AM 53.6 °F 37.4 °F 54% 29.77 in 10.0 mi SW 5.8 mph - N/A   Clear
8:35 AM 55.4 °F 37.4 °F 51% 29.77 in 10.0 mi SW 4.6 mph - N/A   Clear
8:55 AM 55.4 °F 37.4 °F 51% 29.77 in 10.0 mi SW 5.8 mph - N/A   Clear
9:15 AM 57.2 °F 37.4 °F 48% 29.78 in 10.0 mi SW 6.9 mph - N/A   Clear
9:35 AM 59.0 °F 37.4 °F 45% 29.78 in 10.0 mi SW 8.1 mph - N/A   Clear
9:55 AM 59.0 °F 37.4 °F 45% 29.78 in 10.0 mi SW 6.9 mph - N/A   Clear
10:15 AM 59.0 °F 39.2 °F 48% 29.78 in 10.0 mi SW 5.8 mph - N/A   Clear
10:35 AM 64.4 °F 39.2 °F 40% 29.78 in 10.0 mi SW 9.2 mph - N/A   Clear
10:55 AM 66.2 °F 41.0 °F 40% 29.77 in 10.0 mi WSW 10.4 mph 16.1 mph N/A   Clear
11:15 AM 68.0 °F 41.0 °F 37% 29.76 in 10.0 mi SW 11.5 mph - N/A   Clear
11:35 AM 68.0 °F 41.0 °F 37% 29.76 in 10.0 mi West 8.1 mph - N/A   Clear
11:55 AM 68.0 °F 41.0 °F 37% 29.76 in 10.0 mi WSW 11.5 mph 16.1 mph N/A   Clear
12:15 PM 69.8 °F 41.0 °F 35% 29.75 in 10.0 mi WSW 6.9 mph - N/A   Clear
12:35 PM 69.8 °F 41.0 °F 35% 29.74 in 10.0 mi WSW 5.8 mph 17.3 mph N/A   Clear
12:55 PM 71.6 °F 39.2 °F 31% 29.73 in 10.0 mi SSW 9.2 mph 16.1 mph N/A   Clear
1:15 PM 71.6 °F 37.4 °F 29% 29.73 in 10.0 mi SSW 9.2 mph 16.1 mph N/A   Clear
1:35 PM 71.6 °F 37.4 °F 29% 29.72 in 10.0 mi WSW 9.2 mph - N/A   Clear
1:55 PM 73.4 °F 37.4 °F 27% 29.71 in 10.0 mi South 10.4 mph - N/A   Clear
2:15 PM 75.2 °F 37.4 °F 25% 29.69 in 10.0 mi SW 8.1 mph - N/A   Clear
2:35 PM 77.0 °F 37.4 °F 24% 29.68 in 10.0 mi SW 9.2 mph 16.1 mph N/A   Clear
2:55 PM 77.0 °F 35.6 °F 22% 29.67 in 10.0 mi SW 11.5 mph 16.1 mph N/A   Clear
3:15 PM 77.0 °F 35.6 °F 22% 29.66 in 10.0 mi SW 10.4 mph 18.4 mph N/A   Clear
3:35 PM 78.8 °F 33.8 °F 20% 29.66 in 10.0 mi WSW 9.2 mph 17.3 mph N/A   Clear
3:55 PM 78.8 °F 35.6 °F 21% 29.65 in 10.0 mi WSW 10.4 mph - N/A   Clear
4:15 PM 78.8 °F 33.8 °F 20% 29.65 in 10.0 mi SW 9.2 mph - N/A   Clear
4:35 PM 78.8 °F 33.8 °F 20% 29.65 in 10.0 mi WSW 11.5 mph 19.6 mph N/A   Clear
4:55 PM 77.0 °F 32.0 °F 19% 29.65 in 10.0 mi WSW 16.1 mph 23.0 mph N/A   Clear
5:15 PM 77.0 °F 33.8 °F 21% 29.65 in 10.0 mi WSW 8.1 mph - N/A   Clear
5:35 PM 77.0 °F 33.8 °F 21% 29.65 in 10.0 mi SW 11.5 mph 18.4 mph N/A   Clear
5:55 PM 77.0 °F 33.8 °F 21% 29.65 in 10.0 mi WSW 11.5 mph 16.1 mph N/A   Clear
6:15 PM 75.2 °F 33.8 °F 22% 29.64 in 10.0 mi SW 3.5 mph - N/A   Clear
6:35 PM 73.4 °F 33.8 °F 23% 29.64 in 10.0 mi WSW 5.8 mph - N/A   Clear
6:55 PM 71.6 °F 33.8 °F 25% 29.64 in 10.0 mi WSW 4.6 mph - N/A   Clear
7:15 PM 69.8 °F 33.8 °F 27% 29.64 in 10.0 mi Calm Calm - N/A   Clear
7:35 PM 68.0 °F 35.6 °F 30% 29.64 in 10.0 mi Calm Calm - N/A   Clear
7:55 PM 64.4 °F 37.4 °F 37% 29.64 in 10.0 mi Calm Calm - N/A   Clear
8:15 PM 62.6 °F 37.4 °F 39% 29.64 in 10.0 mi Calm Calm - N/A   Clear
8:35 PM 60.8 °F 37.4 °F 42% 29.64 in 10.0 mi Calm Calm - N/A   Clear
8:55 PM 59.0 °F 37.4 °F 45% 29.64 in 10.0 mi Calm Calm - N/A   Clear
9:15 PM 57.2 °F 37.4 °F 48% 29.64 in 10.0 mi Calm Calm - N/A   Clear
9:35 PM 55.4 °F 39.2 °F 54% 29.65 in 10.0 mi Calm Calm - N/A   Clear
9:55 PM 53.6 °F 37.4 °F 54% 29.65 in 10.0 mi Calm Calm - N/A   Clear
10:15 PM 53.6 °F 37.4 °F 54% 29.65 in 10.0 mi Calm Calm - N/A   Clear
10:35 PM 51.8 °F 37.4 °F 58% 29.65 in 10.0 mi Calm Calm - N/A   Clear
10:55 PM 51.8 °F 37.4 °F 58% 29.65 in 10.0 mi Calm Calm - N/A   Clear
11:15 PM 51.8 °F 39.2 °F 62% 29.64 in 10.0 mi Calm Calm - N/A   Clear
11:35 PM 51.8 °F 37.4 °F 58% 29.64 in 10.0 mi Calm Calm - N/A   Clear
11:55 PM 51.8 °F 39.2 °F 62% 29.62 in 10.0 mi Calm Calm - N/A   Scattered Clouds